TimeCDT,TemperatureF,Dew PointF,Humidity,Sea Level PressureIn,VisibilityMPH,Wind Direction,Wind SpeedMPH,Gust SpeedMPH,PrecipitationIn,Events,Conditions,WindDirDegrees,DateUTC
12:53 AM,78.1,71.1,79,29.93,10.0,Calm,Calm,-,N/A,,Clear,0,2013-06-13 05:53:00
1:53 AM,75.9,71.1,85,29.93,10.0,Calm,Calm,-,N/A,,Clear,0,2013-06-13 06:53:00
2:53 AM,77.0,72.0,84,29.93,10.0,Calm,Calm,-,N/A,,Clear,0,2013-06-13 07:53:00
3:53 AM,75.9,72.0,87,29.93,10.0,Calm,Calm,-,N/A,,Clear,0,2013-06-13 08:53:00
4:53 AM,75.9,72.0,87,29.94,10.0,Calm,Calm,-,N/A,,Clear,0,2013-06-13 09:53:00
5:53 AM,75.0,72.0,90,29.96,10.0,Calm,Calm,-,N/A,,Clear,0,2013-06-13 10:53:00
6:53 AM,75.9,73.0,91,29.98,8.0,Calm,Calm,-,N/A,,Clear,0,2013-06-13 11:53:00
7:53 AM,81.0,72.0,74,29.99,10.0,West,5.8,-,N/A,,Clear,260,2013-06-13 12:53:00
8:53 AM,84.0,72.0,67,29.99,10.0,West,8.1,-,N/A,,Clear,260,2013-06-13 13:53:00
9:53 AM,86.0,72.0,63,29.99,10.0,West,15.0,-,N/A,,Clear,260,2013-06-13 14:53:00
10:25 AM,87.8,71.6,58,29.99,10.0,West,17.3,20.7,N/A,,Partly Cloudy,280,2013-06-13 15:25:00
10:53 AM,89.1,71.1,55,29.97,10.0,West,15.0,-,N/A,,Clear,280,2013-06-13 15:53:00
11:53 AM,91.0,72.0,53,29.98,10.0,West,15.0,-,N/A,,Clear,270,2013-06-13 16:53:00
12:53 PM,91.9,72.0,52,29.97,10.0,WNW,10.4,-,N/A,,Clear,300,2013-06-13 17:53:00
1:53 PM,93.9,73.0,51,29.96,10.0,WNW,10.4,-,N/A,,Clear,300,2013-06-13 18:53:00
2:53 PM,95.0,73.9,50,29.93,10.0,WSW,5.8,-,N/A,,Clear,240,2013-06-13 19:53:00
3:53 PM,95.0,73.9,50,29.91,10.0,WSW,5.8,-,N/A,,Clear,240,2013-06-13 20:53:00
4:53 PM,96.1,73.9,49,29.89,10.0,WNW,10.4,-,N/A,,Clear,300,2013-06-13 21:53:00
5:53 PM,96.1,75.0,51,29.87,10.0,WNW,8.1,-,N/A,,Clear,300,2013-06-13 22:53:00
6:53 PM,93.9,75.0,54,29.87,10.0,West,8.1,-,N/A,,Clear,270,2013-06-13 23:53:00
7:53 PM,91.9,75.0,58,29.88,10.0,WNW,6.9,-,N/A,,Clear,300,2013-06-14 00:53:00
8:53 PM,90.0,75.0,61,29.88,10.0,WNW,5.8,-,N/A,,Clear,290,2013-06-14 01:53:00
9:53 PM,88.0,73.9,63,29.90,10.0,NNE,10.4,-,N/A,,Clear,30,2013-06-14 02:53:00
10:53 PM,84.9,72.0,65,29.92,10.0,ENE,4.6,-,N/A,,Clear,60,2013-06-14 03:53:00
11:53 PM,82.9,72.0,69,29.93,10.0,ENE,5.8,-,N/A,,Clear,60,2013-06-14 04:53:00